,,,PA_Meas_PMT16A,,PR_Meas_QMR101_102,,RH_Meas_QMH101,,SR_Meas_QMS101,,TA_Meas_QMH101,,GenWind,,GenWind,
date,time,status,PA,status,PR,status,RH,status,SR,status,TA,status,DirAvg,status,SpdAvg,
2012-03-10, 00:00:05,VALID,997.773,VALID,0,VALID,94.9888,VALID,0,VALID,23.3305,VALID,91,VALID,0,
2012-03-10, 00:01:05,VALID,997.738,VALID,0,VALID,94.9888,VALID,0,VALID,23.3305,VALID,91,VALID,0,
2012-03-10, 00:02:05,VALID,997.769,VALID,0,VALID,95.0422,VALID,0,VALID,23.35,VALID,93,VALID,0,
2012-03-10, 00:03:05,VALID,997.743,VALID,0,VALID,95.0117,VALID,0,VALID,23.3695,VALID,107,VALID,0,
2012-03-10, 00:04:05,VALID,997.694,VALID,0,VALID,95.0422,VALID,0,VALID,23.389,VALID,115,VALID,0,
2012-03-10, 00:05:05,VALID,997.681,VALID,0,VALID,95.0498,VALID,0,VALID,23.4085,VALID,115,VALID,0,
2012-03-10, 00:06:05,VALID,997.671,VALID,0,VALID,95.0651,VALID,0,VALID,23.4475,VALID,115,VALID,0,
2012-03-10, 00:07:05,VALID,997.668,VALID,0,VALID,95.0956,VALID,0,VALID,23.4475,VALID,120,VALID,0,
2012-03-10, 00:08:05,VALID,997.665,VALID,0,VALID,95.088,VALID,0,VALID,23.4671,VALID,126,VALID,0.369141,
2012-03-10, 00:09:05,VALID,997.687,VALID,0,VALID,95.0803,VALID,0,VALID,23.4671,VALID,126,VALID,0.399609,
2012-03-10, 00:10:05,VALID,997.69,VALID,0,VALID,95.0956,VALID,0,VALID,23.4671,VALID,126,VALID,0,
2012-03-10, 00:11:05,VALID,997.653,VALID,0,VALID,95.0956,VALID,0,VALID,23.4475,VALID,126,VALID,0,
2012-03-10, 00:12:05,VALID,997.628,VALID,0,VALID,95.1032,VALID,0,VALID,23.4475,VALID,126,VALID,0,
2012-03-10, 00:13:05,VALID,997.567,VALID,0,VALID,95.0803,VALID,0,VALID,23.4475,VALID,126,VALID,0,
2012-03-10, 00:14:05,VALID,997.547,VALID,0,VALID,95.0727,VALID,0,VALID,23.428,VALID,126,VALID,0,
2012-03-10, 00:15:05,VALID,997.497,VALID,0,VALID,95.0727,VALID,0,VALID,23.428,VALID,130,VALID,0.494531,
2012-03-10, 00:16:05,VALID,997.434,VALID,0,VALID,95.088,VALID,0,VALID,23.4671,VALID,135,VALID,0.725781,
2012-03-10, 00:17:05,VALID,997.442,VALID,0,VALID,95.0651,VALID,0,VALID,23.5256,VALID,140,VALID,0.694922,
2012-03-10, 00:18:04,VALID,997.404,VALID,0,VALID,95.0956,VALID,0,VALID,23.5646,VALID,145,VALID,0.579297,
2012-03-10, 00:19:04,VALID,997.403,VALID,0,VALID,95.1261,VALID,0,VALID,23.6036,VALID,152,VALID,0.400781,
2012-03-10, 00:20:04,VALID,997.424,VALID,0,VALID,95.1337,VALID,0,VALID,23.6232,VALID,152,VALID,0.0570313,
2012-03-10, 00:21:04,VALID,997.405,VALID,0,VALID,95.1261,VALID,0,VALID,23.6232,VALID,152,VALID,0,
2012-03-10, 00:22:04,VALID,997.414,VALID,0,VALID,95.1185,VALID,0,VALID,23.6427,VALID,152,VALID,0.0242187,
2012-03-10, 00:23:04,VALID,997.404,VALID,0,VALID,95.1261,VALID,0,VALID,23.6232,VALID,152,VALID,0,
2012-03-10, 00:24:04,VALID,997.403,VALID,0,VALID,95.1261,VALID,0,VALID,23.6232,VALID,152,VALID,0,
2012-03-10, 00:25:04,VALID,997.4,VALID,0,VALID,95.1261,VALID,0,VALID,23.6036,VALID,152,VALID,0,
2012-03-10, 00:26:04,VALID,997.342,VALID,0,VALID,95.1032,VALID,0,VALID,23.6036,VALID,152,VALID,0,
2012-03-10, 00:27:04,VALID,997.362,VALID,0,VALID,95.1185,VALID,0,VALID,23.6036,VALID,152,VALID,0,
2012-03-10, 00:28:04,VALID,997.35,VALID,0,VALID,95.1032,VALID,0,VALID,23.6036,VALID,152,VALID,0,
2012-03-10, 00:29:04,VALID,997.367,VALID,0,VALID,95.088,VALID,0,VALID,23.5841,VALID,152,VALID,0,
2012-03-10, 00:30:04,VALID,997.317,VALID,0,VALID,95.0803,VALID,0,VALID,23.5451,VALID,152,VALID,0,
2012-03-10, 00:31:04,VALID,997.296,VALID,0,VALID,95.0651,VALID,0,VALID,23.5451,VALID,152,VALID,0,
2012-03-10, 00:32:04,VALID,997.267,VALID,0,VALID,95.0727,VALID,0,VALID,23.5451,VALID,152,VALID,0,
2012-03-10, 00:33:04,VALID,997.293,VALID,0,VALID,95.0345,VALID,0,VALID,23.5256,VALID,152,VALID,0,
2012-03-10, 00:34:04,VALID,997.277,VALID,0,VALID,95.0345,VALID,0,VALID,23.5061,VALID,150,VALID,0,
2012-03-10, 00:35:04,VALID,997.268,VALID,0,VALID,95.0269,VALID,0,VALID,23.4866,VALID,139,VALID,0,
2012-03-10, 00:36:04,VALID,997.252,VALID,0,VALID,95.0345,VALID,0,VALID,23.5061,VALID,139,VALID,0,
2012-03-10, 00:37:04,VALID,997.24,VALID,0,VALID,95.0193,VALID,0,VALID,23.4848,VALID,121,VALID,0,
2012-03-10, 00:38:04,VALID,997.183,VALID,0,VALID,95.0269,VALID,0,VALID,23.5451,VALID,121,VALID,0.646875,
2012-03-10, 00:39:04,VALID,997.212,VALID,0,VALID,95.0269,VALID,0,VALID,23.5451,VALID,121,VALID,0.821094,
2012-03-10, 00:40:04,VALID,997.16,VALID,0,VALID,95.0651,VALID,0,VALID,23.5256,VALID,112,VALID,0.961328,
2012-03-10, 00:41:04,VALID,997.155,VALID,0,VALID,95.0498,VALID,0,VALID,23.5256,VALID,112,VALID,0.935547,
2012-03-10, 00:42:04,VALID,997.132,VALID,0,VALID,95.0498,VALID,0,VALID,23.5451,VALID,104,VALID,0.939062,
2012-03-10, 00:43:04,VALID,997.151,VALID,0,VALID,95.0498,VALID,0,VALID,23.5043,VALID,105,VALID,1.075,
2012-03-10, 00:44:04,VALID,997.117,VALID,0,VALID,95.0574,VALID,0,VALID,23.5238,VALID,110,VALID,1.12305,
2012-03-10, 00:45:04,VALID,997.118,VALID,0,VALID,95.0651,VALID,0,VALID,23.5451,VALID,108,VALID,1.22422,
2012-03-10, 00:46:04,VALID,997.089,VALID,0,VALID,95.0498,VALID,0,VALID,23.5646,VALID,120,VALID,0.975781,
2012-03-10, 00:47:04,VALID,997.108,VALID,0,VALID,95.0803,VALID,0,VALID,23.5841,VALID,120,VALID,0.848437,
2012-03-10, 00:48:04,VALID,997.072,VALID,0,VALID,95.0803,VALID,0,VALID,23.6036,VALID,123,VALID,0.71875,
2012-03-10, 00:49:04,VALID,997.049,VALID,0,VALID,95.088,VALID,0,VALID,23.6232,VALID,129,VALID,1.25859,
2012-03-10, 00:50:04,VALID,997.012,VALID,0,VALID,95.0727,VALID,0,VALID,23.6427,VALID,130,VALID,0.941797,
2012-03-10, 00:51:04,VALID,997.007,VALID,0,VALID,95.088,VALID,0,VALID,23.6622,VALID,130,VALID,0.935547,
2012-03-10, 00:52:04,VALID,996.995,VALID,0,VALID,95.1032,VALID,0,VALID,23.6994,VALID,130,VALID,1.08828,
2012-03-10, 00:53:04,VALID,996.967,VALID,0,VALID,95.0803,VALID,0,VALID,23.7207,VALID,130,VALID,0.898828,
2012-03-10, 00:54:04,VALID,996.933,VALID,0,VALID,95.088,VALID,0,VALID,23.7597,VALID,127,VALID,0.845312,
2012-03-10, 00:55:04,VALID,996.913,VALID,0,VALID,95.0803,VALID,0,VALID,23.7597,VALID,129,VALID,0.74375,
2012-03-10, 00:56:04,VALID,996.907,VALID,0,VALID,95.0651,VALID,0,VALID,23.7793,VALID,132,VALID,0.586328,
2012-03-10, 00:57:04,VALID,996.883,VALID,0,VALID,95.088,VALID,0,VALID,23.7988,VALID,132,VALID,0.176953,
2012-03-10, 00:58:04,VALID,996.882,VALID,0,VALID,95.0651,VALID,0,VALID,23.7988,VALID,132,VALID,0,
2012-03-10, 00:59:04,VALID,996.854,VALID,0,VALID,95.0345,VALID,0,VALID,23.7793,VALID,34,VALID,0.787109,
2012-03-10, 01:00:04,VALID,996.863,VALID,0,VALID,95.0193,VALID,0,VALID,23.7597,VALID,324,VALID,1.00117,
2012-03-10, 01:01:04,VALID,996.837,VALID,0,VALID,94.9735,VALID,0,VALID,23.7402,VALID,332,VALID,0.93125,
2012-03-10, 01:02:04,VALID,996.841,VALID,0,VALID,94.943,VALID,0,VALID,23.7207,VALID,332,VALID,0.707031,
2012-03-10, 01:03:04,VALID,996.82,VALID,0,VALID,94.9125,VALID,0,VALID,23.7207,VALID,332,VALID,0.232031,
2012-03-10, 01:04:04,VALID,996.783,VALID,0,VALID,94.9201,VALID,0,VALID,23.7207,VALID,332,VALID,0,
2012-03-10, 01:05:04,VALID,996.746,VALID,0,VALID,94.9354,VALID,0,VALID,23.6994,VALID,332,VALID,0,
2012-03-10, 01:06:04,VALID,996.778,VALID,0,VALID,94.9201,VALID,0,VALID,23.6994,VALID,332,VALID,0,
2012-03-10, 01:07:04,VALID,996.773,VALID,0,VALID,94.9201,VALID,0,VALID,23.6994,VALID,332,VALID,0,
2012-03-10, 01:08:04,VALID,996.777,VALID,0,VALID,94.8896,VALID,0,VALID,23.7207,VALID,332,VALID,0,
2012-03-10, 01:09:04,VALID,996.777,VALID,0,VALID,94.8972,VALID,0,VALID,23.7207,VALID,332,VALID,0,
2012-03-10, 01:10:04,VALID,996.784,VALID,0,VALID,94.9125,VALID,0,VALID,23.7207,VALID,332,VALID,0,
2012-03-10, 01:11:04,VALID,996.723,VALID,0,VALID,94.882,VALID,0,VALID,23.7402,VALID,332,VALID,0,
2012-03-10, 01:12:04,VALID,996.706,VALID,0,VALID,94.882,VALID,0,VALID,23.7402,VALID,348,VALID,0.421094,
2012-03-10, 01:13:04,VALID,996.668,VALID,0,VALID,94.9048,VALID,0,VALID,23.7207,VALID,11,VALID,0.582422,
2012-03-10, 01:14:04,VALID,996.64,VALID,0,VALID,94.8591,VALID,0,VALID,23.6817,VALID,11,VALID,0.597266,
2012-03-10, 01:15:04,VALID,996.602,VALID,0,VALID,94.8438,VALID,0,VALID,23.6622,VALID,11,VALID,0.368359,
2012-03-10, 01:16:04,VALID,996.591,VALID,0,VALID,94.798,VALID,0,VALID,23.6214,VALID,11,VALID,0.0988281,
2012-03-10, 01:17:04,VALID,996.612,VALID,0,VALID,94.7904,VALID,0,VALID,23.6232,VALID,11,VALID,0,
2012-03-10, 01:18:04,VALID,996.596,VALID,0,VALID,94.7904,VALID,0,VALID,23.6232,VALID,11,VALID,0,
2012-03-10, 01:19:04,VALID,996.588,VALID,0,VALID,94.8057,VALID,0,VALID,23.6214,VALID,11,VALID,0,
2012-03-10, 01:20:04,VALID,996.584,VALID,0,VALID,94.8209,VALID,0,VALID,23.6232,VALID,11,VALID,0,
2012-03-10, 01:21:04,VALID,996.558,VALID,0,VALID,94.8362,VALID,0,VALID,23.6019,VALID,11,VALID,0,
2012-03-10, 01:22:04,VALID,996.552,VALID,0,VALID,94.8591,VALID,0,VALID,23.6232,VALID,11,VALID,0,
2012-03-10, 01:23:04,VALID,996.516,VALID,0,VALID,94.8972,VALID,0,VALID,23.6427,VALID,11,VALID,0,
2012-03-10, 01:24:04,VALID,996.518,VALID,0,VALID,94.882,VALID,0,VALID,23.6427,VALID,11,VALID,0,
2012-03-10, 01:25:04,VALID,996.507,VALID,0,VALID,94.9125,VALID,0,VALID,23.6232,VALID,11,VALID,0,
2012-03-10, 01:26:04,VALID,996.506,VALID,0,VALID,94.8896,VALID,0,VALID,23.6427,VALID,11,VALID,0,
2012-03-10, 01:27:04,VALID,996.493,VALID,0,VALID,94.9277,VALID,0,VALID,23.6427,VALID,11,VALID,0,
2012-03-10, 01:28:04,VALID,996.511,VALID,0,VALID,94.9201,VALID,0,VALID,23.6427,VALID,11,VALID,0.300781,
2012-03-10, 01:29:04,VALID,996.5,VALID,0,VALID,94.943,VALID,0,VALID,23.6622,VALID,11,VALID,0,
2012-03-10, 01:30:04,VALID,996.494,VALID,0,VALID,94.943,VALID,0,VALID,23.6622,VALID,11,VALID,0,
2012-03-10, 01:31:04,VALID,996.482,VALID,0,VALID,94.943,VALID,0,VALID,23.6232,VALID,11,VALID,0,
2012-03-10, 01:32:04,VALID,996.496,VALID,0,VALID,94.943,VALID,0,VALID,23.6427,VALID,11,VALID,0,
2012-03-10, 01:33:04,VALID,996.459,VALID,0,VALID,94.9201,VALID,0,VALID,23.6232,VALID,11,VALID,0,
2012-03-10, 01:34:04,VALID,996.44,VALID,0,VALID,94.9354,VALID,0,VALID,23.6232,VALID,11,VALID,0,
2012-03-10, 01:35:04,VALID,996.38,VALID,0,VALID,94.9201,VALID,0,VALID,23.6036,VALID,11,VALID,0,
2012-03-10, 01:36:04,VALID,996.35,VALID,0,VALID,94.9277,VALID,0,VALID,23.6036,VALID,11,VALID,0,
2012-03-10, 01:37:04,VALID,996.33,VALID,0,VALID,94.9201,VALID,0,VALID,23.5841,VALID,11,VALID,0,
2012-03-10, 01:38:04,VALID,996.33,VALID,0,VALID,94.9201,VALID,0,VALID,23.5646,VALID,11,VALID,0,
2012-03-10, 01:39:04,VALID,996.305,VALID,0,VALID,94.9125,VALID,0,VALID,23.5664,VALID,11,VALID,0,
2012-03-10, 01:40:04,VALID,996.318,VALID,0,VALID,94.882,VALID,0,VALID,23.5646,VALID,11,VALID,0,
2012-03-10, 01:41:04,VALID,996.263,VALID,0,VALID,94.9201,VALID,0,VALID,23.5646,VALID,11,VALID,0,
2012-03-10, 01:42:04,VALID,996.281,VALID,0,VALID,94.9354,VALID,0,VALID,23.5646,VALID,11,VALID,0,
2012-03-10, 01:43:04,VALID,996.279,VALID,0,VALID,94.9201,VALID,0,VALID,23.5451,VALID,11,VALID,0,
2012-03-10, 01:44:04,VALID,996.253,VALID,0,VALID,94.9354,VALID,0,VALID,23.5451,VALID,11,VALID,0,
2012-03-10, 01:45:04,VALID,996.255,VALID,0,VALID,94.9583,VALID,0,VALID,23.5451,VALID,11,VALID,0,
2012-03-10, 01:46:04,VALID,996.276,VALID,0,VALID,94.9583,VALID,0,VALID,23.5238,VALID,11,VALID,0,
2012-03-10, 01:47:04,VALID,996.279,VALID,0,VALID,94.9735,VALID,0.104696,VALID,23.5433,VALID,11,VALID,0.149609,
2012-03-10, 01:48:04,VALID,996.298,VALID,0,VALID,94.9735,VALID,0,VALID,23.5841,VALID,11,VALID,0.434766,
2012-03-10, 01:49:04,VALID,996.301,VALID,0,VALID,94.9888,VALID,0,VALID,23.6036,VALID,11,VALID,0.486328,
2012-03-10, 01:50:04,VALID,996.282,VALID,0,VALID,95.0117,VALID,0,VALID,23.6232,VALID,12,VALID,0.673047,
2012-03-10, 01:51:04,VALID,996.334,VALID,0,VALID,95.0193,VALID,0,VALID,23.6232,VALID,31,VALID,0.976563,
2012-03-10, 01:52:04,VALID,996.316,VALID,0,VALID,95.004,VALID,0,VALID,23.6019,VALID,40,VALID,1.21211,
2012-03-10, 01:53:04,VALID,996.352,VALID,0,VALID,95.004,VALID,0,VALID,23.6214,VALID,40,VALID,1.43438,
2012-03-10, 01:54:04,VALID,996.323,VALID,0,VALID,95.0117,VALID,0,VALID,23.6019,VALID,39,VALID,1.34609,
2012-03-10, 01:55:04,VALID,996.315,VALID,0,VALID,94.9964,VALID,0,VALID,23.6427,VALID,37,VALID,1.15117,
2012-03-10, 01:56:04,VALID,996.301,VALID,0,VALID,95.004,VALID,0,VALID,23.6622,VALID,38,VALID,1.00234,
2012-03-10, 01:57:04,VALID,996.298,VALID,0,VALID,94.9964,VALID,0,VALID,23.6622,VALID,40,VALID,0.928125,
2012-03-10, 01:58:04,VALID,996.308,VALID,0,VALID,94.9735,VALID,0,VALID,23.6622,VALID,40,VALID,0.541797,
2012-03-10, 01:59:04,VALID,996.295,VALID,0,VALID,94.9811,VALID,0.104696,VALID,23.6427,VALID,40,VALID,0.347266,
2012-03-10, 02:00:04,VALID,996.277,VALID,0,VALID,94.9659,VALID,0,VALID,23.6427,VALID,40,VALID,0.304297,
2012-03-10, 02:01:04,VALID,996.288,VALID,0,VALID,94.9354,VALID,0,VALID,23.6232,VALID,40,VALID,0.246094,
2012-03-10, 02:02:04,VALID,996.309,VALID,0,VALID,94.9506,VALID,0,VALID,23.6232,VALID,40,VALID,0.276172,
2012-03-10, 02:03:04,VALID,996.331,VALID,0,VALID,94.9277,VALID,0,VALID,23.6036,VALID,40,VALID,0.512891,
2012-03-10, 02:04:04,VALID,996.312,VALID,0,VALID,94.9354,VALID,0,VALID,23.5823,VALID,40,VALID,0.623438,
2012-03-10, 02:05:04,VALID,996.321,VALID,0,VALID,94.9201,VALID,0,VALID,23.6036,VALID,40,VALID,0.878516,
2012-03-10, 02:06:04,VALID,996.318,VALID,0,VALID,94.9277,VALID,0,VALID,23.5628,VALID,23,VALID,1.17305,
2012-03-10, 02:07:04,VALID,996.299,VALID,0,VALID,94.8972,VALID,0,VALID,23.5433,VALID,8,VALID,1.17969,
2012-03-10, 02:08:04,VALID,996.286,VALID,0,VALID,94.9201,VALID,0,VALID,23.5646,VALID,357,VALID,0.783984,
2012-03-10, 02:09:04,VALID,996.299,VALID,0,VALID,94.9048,VALID,0,VALID,23.5841,VALID,355,VALID,0.714063,
2012-03-10, 02:10:04,VALID,996.251,VALID,0,VALID,94.943,VALID,0,VALID,23.5823,VALID,355,VALID,0.238672,
2012-03-10, 02:11:04,VALID,996.224,VALID,0,VALID,94.9354,VALID,0,VALID,23.5841,VALID,355,VALID,0,
2012-03-10, 02:12:04,VALID,996.244,VALID,0,VALID,94.943,VALID,0,VALID,23.5823,VALID,355,VALID,0,
2012-03-10, 02:13:04,VALID,996.219,VALID,0,VALID,94.943,VALID,0,VALID,23.5841,VALID,355,VALID,0,
2012-03-10, 02:14:04,VALID,996.228,VALID,0,VALID,94.9201,VALID,0,VALID,23.5628,VALID,355,VALID,0,
2012-03-10, 02:15:04,VALID,996.231,VALID,0,VALID,94.943,VALID,0,VALID,23.5841,VALID,355,VALID,0,
2012-03-10, 02:16:04,VALID,996.251,VALID,0,VALID,94.9201,VALID,0,VALID,23.5646,VALID,355,VALID,0,
2012-03-10, 02:17:04,VALID,996.256,VALID,0,VALID,94.943,VALID,0,VALID,23.5628,VALID,355,VALID,0,
2012-03-10, 02:18:04,VALID,996.28,VALID,0,VALID,94.9125,VALID,0,VALID,23.5646,VALID,355,VALID,0,
2012-03-10, 02:19:04,VALID,996.301,VALID,0,VALID,94.943,VALID,0.104696,VALID,23.5433,VALID,355,VALID,0,
2012-03-10, 02:20:04,VALID,996.317,VALID,0,VALID,94.943,VALID,0,VALID,23.5433,VALID,355,VALID,0,
2012-03-10, 02:21:04,VALID,996.306,VALID,0,VALID,94.943,VALID,0,VALID,23.5238,VALID,355,VALID,0.270703,
2012-03-10, 02:22:04,VALID,996.277,VALID,0,VALID,94.943,VALID,0,VALID,23.5433,VALID,355,VALID,0.296484,
2012-03-10, 02:23:04,VALID,996.309,VALID,0,VALID,94.9506,VALID,0,VALID,23.5646,VALID,355,VALID,0.264844,
2012-03-10, 02:24:04,VALID,996.265,VALID,0,VALID,94.9583,VALID,0,VALID,23.5646,VALID,355,VALID,0.428125,
2012-03-10, 02:25:04,VALID,996.264,VALID,0,VALID,94.9506,VALID,0,VALID,23.5646,VALID,355,VALID,0.594141,
2012-03-10, 02:26:04,VALID,996.241,VALID,0,VALID,94.943,VALID,0,VALID,23.5238,VALID,355,VALID,0.449219,
2012-03-10, 02:27:04,VALID,996.236,VALID,0,VALID,94.943,VALID,0,VALID,23.5238,VALID,355,VALID,0.285547,
2012-03-10, 02:28:04,VALID,996.197,VALID,0,VALID,94.943,VALID,0,VALID,23.5451,VALID,355,VALID,0,
2012-03-10, 02:29:04,VALID,996.202,VALID,0,VALID,94.9659,VALID,0,VALID,23.5646,VALID,355,VALID,0,
2012-03-10, 02:30:04,VALID,996.22,VALID,0,VALID,94.9659,VALID,0,VALID,23.5646,VALID,355,VALID,0.0832031,
2012-03-10, 02:31:04,VALID,996.251,VALID,0,VALID,94.9659,VALID,0,VALID,23.5646,VALID,59,VALID,0.772266,
2012-03-10, 02:32:04,VALID,996.276,VALID,0,VALID,94.9735,VALID,0,VALID,23.5823,VALID,71,VALID,0.986719,
2012-03-10, 02:33:04,VALID,996.297,VALID,0,VALID,95.0117,VALID,0.104696,VALID,23.5823,VALID,71,VALID,1.00391,
2012-03-10, 02:34:04,VALID,996.296,VALID,0,VALID,95.0193,VALID,0,VALID,23.6019,VALID,71,VALID,0.921875,
2012-03-10, 02:35:04,VALID,996.297,VALID,0,VALID,94.9964,VALID,0,VALID,23.6214,VALID,71,VALID,0.663281,
2012-03-10, 02:36:04,VALID,996.304,VALID,0,VALID,95.004,VALID,0,VALID,23.6214,VALID,71,VALID,0.440625,
2012-03-10, 02:37:04,VALID,996.275,VALID,0,VALID,95.0269,VALID,0,VALID,23.6214,VALID,71,VALID,0,
2012-03-10, 02:38:04,VALID,996.287,VALID,0,VALID,95.0193,VALID,0.104696,VALID,23.6622,VALID,71,VALID,0,
2012-03-10, 02:39:04,VALID,996.289,VALID,0,VALID,95.0269,VALID,0,VALID,23.6604,VALID,71,VALID,0,
2012-03-10, 02:40:04,VALID,996.278,VALID,0,VALID,95.0117,VALID,0,VALID,23.6604,VALID,71,VALID,0,
2012-03-10, 02:41:04,VALID,996.28,VALID,0,VALID,94.9964,VALID,0,VALID,23.6817,VALID,71,VALID,0,
2012-03-10, 02:42:04,VALID,996.305,VALID,0,VALID,95.0269,VALID,0,VALID,23.6604,VALID,71,VALID,0,
2012-03-10, 02:43:04,VALID,996.326,VALID,0,VALID,95.004,VALID,0,VALID,23.6799,VALID,71,VALID,0,
2012-03-10, 02:44:04,VALID,996.361,VALID,0,VALID,95.0345,VALID,0.104696,VALID,23.7207,VALID,71,VALID,0,
2012-03-10, 02:45:04,VALID,996.338,VALID,0,VALID,95.0193,VALID,0,VALID,23.7402,VALID,71,VALID,0.403125,
2012-03-10, 02:46:04,VALID,996.347,VALID,0,VALID,95.0193,VALID,0,VALID,23.6994,VALID,71,VALID,0.529688,
2012-03-10, 02:47:04,VALID,996.375,VALID,0,VALID,95.0345,VALID,0.104696,VALID,23.7402,VALID,71,VALID,0.439063,
2012-03-10, 02:48:04,VALID,996.386,VALID,0,VALID,95.0193,VALID,0,VALID,23.7384,VALID,71,VALID,0.265234,
2012-03-10, 02:49:04,VALID,996.38,VALID,0,VALID,95.0193,VALID,0,VALID,23.7189,VALID,71,VALID,0.245703,
2012-03-10, 02:50:04,VALID,996.354,VALID,0,VALID,94.9964,VALID,0,VALID,23.7597,VALID,71,VALID,0,
2012-03-10, 02:51:04,VALID,996.367,VALID,0,VALID,95.0269,VALID,0,VALID,23.7402,VALID,71,VALID,0,
2012-03-10, 02:52:04,VALID,996.401,VALID,0,VALID,95.0193,VALID,0,VALID,23.7597,VALID,71,VALID,0,
2012-03-10, 02:53:04,VALID,996.41,VALID,0,VALID,95.0269,VALID,0,VALID,23.7597,VALID,71,VALID,0,
2012-03-10, 02:54:04,VALID,996.447,VALID,0,VALID,95.0193,VALID,0,VALID,23.7384,VALID,55,VALID,0,
2012-03-10, 02:55:04,VALID,996.474,VALID,0.5,VALID,95.0193,VALID,0,VALID,23.7793,VALID,32,VALID,1.18555,
2012-03-10, 02:56:04,VALID,996.478,VALID,0.5,VALID,95.0345,VALID,0,VALID,23.7597,VALID,20,VALID,1.17227,
2012-03-10, 02:57:04,VALID,996.437,VALID,0.5,VALID,95.0117,VALID,0,VALID,23.7597,VALID,5,VALID,1.08164,
2012-03-10, 02:58:04,VALID,996.408,VALID,0.5,VALID,95.0498,VALID,0,VALID,23.7597,VALID,342,VALID,1.06016,
2012-03-10, 02:59:04,VALID,996.416,VALID,0,VALID,95.0498,VALID,0,VALID,23.7597,VALID,332,VALID,1.29844,
2012-03-10, 03:00:04,VALID,996.422,VALID,0,VALID,95.0803,VALID,0,VALID,23.7579,VALID,336,VALID,0.34375,
2012-03-10, 03:01:04,VALID,996.38,VALID,0,VALID,95.0956,VALID,0,VALID,23.7579,VALID,336,VALID,0.000390625,
2012-03-10, 03:02:04,VALID,996.424,VALID,0,VALID,95.1108,VALID,0,VALID,23.7597,VALID,9,VALID,1.06172,
2012-03-10, 03:03:04,VALID,996.396,VALID,0,VALID,95.088,VALID,0,VALID,23.7793,VALID,23,VALID,1.01445,
2012-03-10, 03:04:04,VALID,996.42,VALID,0,VALID,95.1108,VALID,0,VALID,23.7793,VALID,44,VALID,1.33594,
2012-03-10, 03:05:04,VALID,996.431,VALID,0,VALID,95.1261,VALID,0,VALID,23.7988,VALID,67,VALID,1.27852,
2012-03-10, 03:06:04,VALID,996.428,VALID,0,VALID,95.1108,VALID,0,VALID,23.8378,VALID,90,VALID,0.889063,
2012-03-10, 03:07:04,VALID,996.408,VALID,0,VALID,95.1261,VALID,0,VALID,23.8768,VALID,90,VALID,0.630859,
2012-03-10, 03:08:04,VALID,996.396,VALID,0,VALID,95.1414,VALID,0,VALID,23.8963,VALID,72,VALID,0.621094,
2012-03-10, 03:09:04,VALID,996.406,VALID,0,VALID,95.1566,VALID,0,VALID,23.8945,VALID,24,VALID,0.573047,
2012-03-10, 03:10:04,VALID,996.403,VALID,0,VALID,95.1643,VALID,0,VALID,23.914,VALID,18,VALID,0.350391,
2012-03-10, 03:11:04,VALID,996.41,VALID,0,VALID,95.1643,VALID,0,VALID,23.9354,VALID,9,VALID,0.810156,
2012-03-10, 03:12:04,VALID,996.399,VALID,0,VALID,95.1871,VALID,0,VALID,23.9354,VALID,360,VALID,0.841797,
2012-03-10, 03:13:04,VALID,996.411,VALID,0,VALID,95.1871,VALID,0,VALID,23.9354,VALID,1,VALID,0.440234,
2012-03-10, 03:14:04,VALID,996.381,VALID,0,VALID,95.1948,VALID,0,VALID,23.9354,VALID,1,VALID,0.751172,
2012-03-10, 03:15:04,VALID,996.377,VALID,0,VALID,95.2024,VALID,0,VALID,23.9549,VALID,360,VALID,0.605078,
2012-03-10, 03:16:04,VALID,996.402,VALID,0,VALID,95.2024,VALID,0,VALID,23.914,VALID,360,VALID,0.508984,
2012-03-10, 03:17:04,VALID,996.416,VALID,0,VALID,95.21,VALID,0,VALID,23.9354,VALID,360,VALID,0.674219,
2012-03-10, 03:18:04,VALID,996.441,VALID,0,VALID,95.2024,VALID,0,VALID,23.9336,VALID,334,VALID,0.758594,
2012-03-10, 03:19:04,VALID,996.424,VALID,0,VALID,95.21,VALID,0,VALID,23.9549,VALID,334,VALID,0.645312,
2012-03-10, 03:20:04,VALID,996.452,VALID,0,VALID,95.2177,VALID,0,VALID,23.9354,VALID,334,VALID,0.952734,
2012-03-10, 03:21:04,VALID,996.488,VALID,0,VALID,95.1948,VALID,0,VALID,23.9549,VALID,334,VALID,0.844922,
2012-03-10, 03:22:04,VALID,996.481,VALID,0,VALID,95.2253,VALID,0,VALID,23.9354,VALID,334,VALID,0.933203,
2012-03-10, 03:23:04,VALID,996.492,VALID,0,VALID,95.21,VALID,0,VALID,23.9354,VALID,334,VALID,0.639844,
2012-03-10, 03:24:04,VALID,996.484,VALID,0,VALID,95.21,VALID,0,VALID,23.9159,VALID,334,VALID,0.559375,
2012-03-10, 03:25:04,VALID,996.516,VALID,0,VALID,95.2253,VALID,0,VALID,23.9159,VALID,334,VALID,0.295312,
2012-03-10, 03:26:04,VALID,996.541,VALID,0,VALID,95.2405,VALID,0,VALID,23.8963,VALID,334,VALID,0.295703,
2012-03-10, 03:27:04,VALID,996.537,VALID,0,VALID,95.2177,VALID,0,VALID,23.8573,VALID,334,VALID,0.0660156,
2012-03-10, 03:28:04,VALID,996.544,VALID,0,VALID,95.2177,VALID,0,VALID,23.8573,VALID,334,VALID,0,
2012-03-10, 03:29:04,VALID,996.584,VALID,0,VALID,95.2482,VALID,0,VALID,23.8183,VALID,334,VALID,0,
2012-03-10, 03:30:04,VALID,996.593,VALID,0,VALID,95.2711,VALID,0,VALID,23.7793,VALID,334,VALID,0,
2012-03-10, 03:31:04,VALID,996.622,VALID,0,VALID,95.2253,VALID,0,VALID,23.7597,VALID,334,VALID,0,
2012-03-10, 03:32:04,VALID,996.634,VALID,0,VALID,95.2253,VALID,0,VALID,23.7402,VALID,334,VALID,0,
2012-03-10, 03:33:04,VALID,996.667,VALID,0,VALID,95.2329,VALID,0,VALID,23.7189,VALID,334,VALID,0.351172,
2012-03-10, 03:34:04,VALID,996.683,VALID,0,VALID,95.2253,VALID,0,VALID,23.7402,VALID,334,VALID,0.633984,
2012-03-10, 03:35:04,VALID,996.709,VALID,0,VALID,95.2177,VALID,0,VALID,23.7189,VALID,59,VALID,0.739453,
2012-03-10, 03:36:04,VALID,996.719,VALID,0,VALID,95.2405,VALID,0,VALID,23.7207,VALID,59,VALID,0.375,
2012-03-10, 03:37:04,VALID,996.716,VALID,0,VALID,95.2329,VALID,0,VALID,23.7012,VALID,59,VALID,0.251953,
2012-03-10, 03:38:04,VALID,996.74,VALID,0,VALID,95.2405,VALID,0,VALID,23.6799,VALID,59,VALID,0,
2012-03-10, 03:39:04,VALID,996.745,VALID,0,VALID,95.2558,VALID,0,VALID,23.6622,VALID,59,VALID,0,
2012-03-10, 03:40:04,VALID,996.753,VALID,0,VALID,95.2329,VALID,0,VALID,23.6622,VALID,59,VALID,0,
2012-03-10, 03:41:04,VALID,996.748,VALID,0,VALID,95.2482,VALID,0,VALID,23.6427,VALID,59,VALID,0,
2012-03-10, 03:42:04,VALID,996.756,VALID,0,VALID,95.2329,VALID,0,VALID,23.6427,VALID,59,VALID,0.245312,
2012-03-10, 03:43:04,VALID,996.743,VALID,0,VALID,95.2329,VALID,0,VALID,23.6427,VALID,59,VALID,0.408203,
2012-03-10, 03:44:04,VALID,996.732,VALID,0,VALID,95.2482,VALID,0,VALID,23.6817,VALID,59,VALID,0.521484,
2012-03-10, 03:45:04,VALID,996.715,VALID,0,VALID,95.2329,VALID,0,VALID,23.6817,VALID,59,VALID,0.4875,
2012-03-10, 03:46:04,VALID,996.701,VALID,0,VALID,95.2482,VALID,0,VALID,23.6799,VALID,59,VALID,0.368359,
2012-03-10, 03:47:04,VALID,996.698,VALID,0,VALID,95.2405,VALID,0,VALID,23.7012,VALID,59,VALID,0.300781,
2012-03-10, 03:48:04,VALID,996.672,VALID,0,VALID,95.2558,VALID,0,VALID,23.7012,VALID,59,VALID,0.327344,
2012-03-10, 03:49:04,VALID,996.656,VALID,0,VALID,95.2253,VALID,0,VALID,23.7207,VALID,59,VALID,0.321484,
2012-03-10, 03:50:04,VALID,996.635,VALID,0,VALID,95.2405,VALID,0,VALID,23.7402,VALID,59,VALID,0.268359,
2012-03-10, 03:51:04,VALID,996.636,VALID,0,VALID,95.2482,VALID,0,VALID,23.7597,VALID,59,VALID,0.141016,